sat.trackr.live / text

‹ back to catalog

LIJIAN-1 R/B

NORAD 69102 · 2026-106F

ROCKET_BODY UNKNOWN UNKNOWN

§ Identity

Operator
Country
PRC
Launch date
2026-05-15
Launch site
JSC
Launch vehicle
Mass (kg)
RCS (m²)

External: N2YO · Heavens-Above · Gunter

§ Orbital elements

Epoch: 2026-06-13T22:59:02.375232Z

Period
92.71 min
Inclination
97.5047°
Eccentricity
0.0172047
Mean motion
15.53221147 rev/d
Perigee alt
290.6 km
Apogee alt
524.1 km
Semi-major
6,785.5 km
B*
3.7216e-4
RAAN
248.9754°
Arg perigee
266.1469°
Mean anomaly
92.0099°
Rev number
461

§ Raw data

LIJIAN-1 R/B1 69102U 26106F   26164.95766638  .00044340  27417-5  37216-3 0  99952 69102  97.5047 248.9754 0172047 266.1469  92.0099 15.53221147  4617

JSON: /api/v1/satellites/69102 · /tle

For live sub-satellite position, see the globe view (requires WebGL).

§ Visibility from observer

Set your observer location to see the next 7 days of passes ≥ 10°. The values pass through the URL so the page stays shareable.

No JS? Fill the form by hand. The geolocation button needs JavaScript.